Content
SEND FEEDBACK

Daily
Averages
Monthly
Summary
Turkey

DIYARBAKIR, TURKEY


Home > Middle East > Turkey
Elevation: 2221 feet     Latitude: 37 53N     Longitude: 040 11E

WEATHER
 
SELECT A DAY
Number of Records: 207,465;   Date Range: 7/1/96 - 9/18/14
 
SHARE

PRINT THIS DATA

[ ← Previous Day ]
WEATHER ALMANAC - JANUARY 14, 2013
[ Next Day → ]
[ °C ]   °F
Weather ElementAverageHighLow
Temperature34.1 °F44.6 °F (2:50 pm)21.2 °F (6:20 am)
Dewpoint27.9 °F35.6 °F (1:20 pm)19.4 °F (6:20 am)
Humidity78.7 %100 % (2:20 am)60 % (8:00 pm)
Barometer30.28 in30.41 in (8:00 am)30.24 in (1:20 am)
Wind Speed5.6 mph13.8 mph (5:50 pm)
Weather ElementAverage
Visibility7.9 mi
Wind DirectionSSW (203.5 °)

Weather ElementTotal
Precipitation---
Heating Degree Days32.1 (Base 65)
Averaged from 49 records on January 14, 2013
WEATHER CONDITIONS BREAKOUT
WIND DIRECTION BREAKOUT
WEATHER BY HOUR - JANUARY 14, 2013
[ °C ]   °F
Local TimeTemperatureDewpointHumidityBarometerVisibilityWind DirectionWind SpeedGust SpeedPrecipitationEventsConditions
12:50 AM28.4 °F26.6 °F93 %30.27 in6.2 miWest (270°)6.9 mphScattered Clouds
1:20 AM26.6 °F24.8 °F93 %30.24 inVariable1.2 mphClear
1:50 AM26.6 °F24.8 °F93 %30.24 inWest (270°)4.6 mphClear
2:00 AM26.0 °F26.0 °F98 %30.37 in6.0 miWest (270°)4.6 mph
2:20 AM24.8 °F24.8 °F100 %30.24 inWest (260°)5.8 mphClear
2:50 AM24.8 °F23.0 °F93 %30.24 inWNW (290°)2.3 mphClear
3:20 AM24.8 °F24.8 °F100 %30.24 inWest (260°)4.6 mphClear
3:50 AM26.6 °F24.8 °F93 %30.24 inWest (270°)5.8 mphClear
4:50 AM24.8 °F24.8 °F100 %30.24 inWest (260°)4.6 mphClear
5:20 AM24.8 °F23.0 °F93 %30.27 inCalmClear
5:50 AM24.8 °F23.0 °F93 %30.27 inWest (270°)4.6 mphClear
6:20 AM21.2 °F19.4 °F93 %30.27 in5.0 miWest (280°)4.6 mph
6:50 AM23.0 °F21.2 °F93 %30.30 inWSW (250°)5.8 mphClear
7:20 AM26.6 °F24.8 °F93 %30.30 inWest (260°)6.9 mphClear
7:50 AM28.4 °F24.8 °F86 %30.30 inWest (280°)3.5 mphClear
8:00 AM28.0 °F26.0 °F86 %30.41 in12.0 miWest (280°)3.5 mph
8:20 AM32.0 °F28.4 °F87 %30.30 inCalmClear
8:50 AM33.8 °F28.4 °F81 %30.30 inCalmClear
9:20 AM32.0 °F28.4 °F87 %30.30 inENE (70°)3.5 mphClear
9:50 AM35.6 °F30.2 °F81 %30.30 inVariable2.3 mphClear
10:20 AM39.2 °F30.2 °F70 %30.30 inCalmClear
10:50 AM39.2 °F32.0 °F75 %30.27 inVariable1.2 mphClear
11:20 AM39.2 °F32.0 °F75 %30.27 inVariable2.3 mphClear
11:50 AM41.0 °F32.0 °F70 %30.24 inNNW (330°)5.8 mphClear
12:20 PM42.8 °F32.0 °F66 %30.24 inNW (320°)3.5 mphClear
12:50 PM42.8 °F32.0 °F66 %30.24 inNNW (340°)8.1 mphClear
1:20 PM42.8 °F35.6 °F76 %30.24 inVariable6.9 mphClear
1:50 PM42.8 °F35.6 °F76 %30.24 inESE (120°)5.8 mphClear
2:00 PM42.0 °F35.0 °F68 %30.35 in6.0 miESE (120°)5.8 mphClear
2:20 PM42.8 °F35.6 °F76 %30.24 inSE (130°)5.8 mphClear
2:50 PM44.6 °F32.0 °F61 %30.24 inNW (310°)11.5 mphClear
3:20 PM44.6 °F32.0 °F61 %30.24 inNNW (330°)11.5 mphClear
3:50 PM42.8 °F30.2 °F61 %30.27 inNNE (30°)8.1 mphClear
4:20 PM41.0 °F30.2 °F65 %30.27 inNorth (360°)9.2 mphClear
4:50 PM39.2 °F28.4 °F65 %30.27 inNorth (350°)10.4 mphClear
5:20 PM39.2 °F28.4 °F65 %30.27 inNorth (350°)9.2 mphClear
5:50 PM39.2 °F28.4 °F65 %30.27 inNorth (350°)13.8 mphClear
6:20 PM39.2 °F28.4 °F65 %30.27 inNorth (350°)13.8 mphClear
6:50 PM39.2 °F28.4 °F65 %30.27 inNNW (340°)10.4 mphClear
7:20 PM37.4 °F28.4 °F70 %30.27 inNNE (20°)8.1 mphClear
8:00 PM36.0 °F27.0 °F60 %30.39 in12.0 miNorth (350°)6.9 mph
8:20 PM37.4 °F26.6 °F65 %30.27 inNorth (360°)6.9 mphClear
8:50 PM33.8 °F28.4 °F81 %30.27 inVariable2.3 mphClear
9:20 PM32.0 °F26.6 °F80 %30.27 inWNW (300°)6.9 mphClear
9:50 PM35.6 °F26.6 °F70 %30.27 inNorth (10°)4.6 mphClear
10:20 PM35.6 °F24.8 °F65 %30.30 inNNW (340°)8.1 mphClear
10:50 PM32.0 °F26.6 °F80 %30.27 inWNW (290°)6.9 mphClear
11:20 PM32.0 °F26.6 °F80 %30.30 inCalmClear
11:50 PM32.0 °F26.6 °F80 %30.30 inNNW (330°)3.5 mphClear
Hourly data recorded from LTCC, located miles away from Diyarbakir, Turkey







STORIES FROM OUR PARTNERS